Weather History for Phoenix Deer Valley, AZ

Change the Weather History Date:

Monday, November 4, 2013

  Actual Average Record
Temperature  
Mean Temperature 64 °F -  
Max Temperature 75 °F 74 °F 93 °F (2001)
Min Temperature 53 °F 53 °F 45 °F (2003)
Degree Days  
Heating Degree Days 1    
Growing Degree Days 14 (Base 50)    
Moisture  
Dew Point 35 °F    
Average Humidity 34    
Maximum Humidity 67    
Minimum Humidity 21    
Precipitation  
Precipitation 0.00 in - - ()
Sea Level Pressure  
Sea Level Pressure 29.72 in    
Wind  
Wind Speed 5 mph (NW)    
Max Wind Speed 18 mph    
Max Gust Speed 33 mph    
Visibility 10 miles    
Events Rain    
Averages and records for this station are not official NWS values.
T = Trace of Precipitation, MM = Missing Value Source: NWS Daily Summary

Daily Weather History Graph

Daily Weather History Graph

Search for Another Location

Airport:

Trip Planner

Search our weather history database for the weather conditions in past years. The results will help you decide how hot, cold, wet, or windy it might be!

Date:

Astronomy

Nov. 04, 2013 Rise Set
Actual Time 6:50 AM MST 5:32 PM MST
Civil Twilight 6:24 AM MST 5:58 PM MST
Nautical Twilight 5:54 AM MST 6:28 PM MST
Astronomical Twilight 5:25 AM MST 6:57 PM MST
Moon 8:01 AM MST (11/4) 6:44 PM MST (11/4)
Length of Visible Light 11h 34m
Length of Day
10h 42m
New Moon, 2% of the Moon is Illuminated
Nov 4
New Moon
Nov 9
First Quarter
Nov 17
Full
Nov 25
Last Quarter
Dec 2
New

Hourly Weather History & Observations

Time (MST) Temp. Dew Point Humidity Pressure Visibility Wind Dir Wind Speed Gust Speed Precip Events Conditions
12:53 AM 59.0 °F 28.0 °F 31% 29.70 in 10.0 mi ENE 3.5 mph - N/A   Clear
1:53 AM 59.0 °F 26.1 °F 28% 29.70 in 10.0 mi North 4.6 mph - N/A   Clear
2:53 AM 55.9 °F 26.1 °F 32% 29.70 in 10.0 mi Calm Calm - N/A   Clear
3:53 AM 53.1 °F 26.1 °F 35% 29.70 in 10.0 mi East 4.6 mph - N/A   Clear
4:53 AM 55.0 °F 28.0 °F 35% 29.70 in 10.0 mi Calm Calm - N/A   Mostly Cloudy
5:53 AM 53.1 °F 28.0 °F 38% 29.72 in 10.0 mi Calm Calm - N/A   Clear
6:53 AM 53.1 °F 28.0 °F 38% 29.74 in 10.0 mi Calm Calm - N/A   Clear
7:53 AM 57.0 °F 28.9 °F 34% 29.76 in 10.0 mi East 3.5 mph - N/A   Clear
8:53 AM 64.0 °F 33.1 °F 31% 29.77 in 10.0 mi East 5.8 mph - N/A   Clear
9:53 AM 69.1 °F 37.0 °F 31% 29.75 in 10.0 mi ESE 10.4 mph - N/A   Clear
10:53 AM 71.1 °F 43.0 °F 36% 29.75 in 10.0 mi SSE 8.1 mph - N/A   Clear
11:53 AM 73.0 °F 42.1 °F 33% 29.72 in 10.0 mi SSE 9.2 mph - N/A   Clear
12:53 PM 73.9 °F 43.0 °F 33% 29.69 in 10.0 mi SSW 5.8 mph - N/A   Clear
1:53 PM 75.0 °F 42.1 °F 31% 29.67 in 10.0 mi South 5.8 mph - N/A   Clear
2:53 PM 75.0 °F 37.0 °F 25% 29.66 in 10.0 mi WNW 9.2 mph - N/A   Clear
3:53 PM 75.0 °F 32.0 °F 21% 29.66 in 10.0 mi West 4.6 mph - N/A   Clear
4:53 PM 73.9 °F 30.9 °F 21% 29.65 in 10.0 mi West 4.6 mph - N/A   Partly Cloudy
5:53 PM 72.0 °F 30.0 °F 21% 29.66 in 10.0 mi West 3.5 mph - N/A   Clear
6:53 PM 71.1 °F 30.9 °F 23% 29.67 in 10.0 mi NW 3.5 mph - N/A   Overcast
7:53 PM 70.0 °F 28.0 °F 21% 29.67 in 10.0 mi Calm Calm - N/A   Mostly Cloudy
8:25 PM 69.8 °F 37.4 °F 31% 29.74 in 10.0 mi WNW 18.4 mph 33.4 mph 0.00 in Rain Light Rain
8:38 PM 66.2 °F 41.0 °F 40% 29.77 in 10.0 mi WNW 12.7 mph 25.3 mph 0.00 in   Overcast
8:53 PM 64.0 °F 45.0 °F 50% 29.73 in 10.0 mi WNW 15.0 mph - 0.00 in Rain Light Rain
9:53 PM 60.1 °F 48.9 °F 67% 29.78 in 10.0 mi NNW 15.0 mph - 0.00 in   Overcast
10:53 PM 60.1 °F 45.0 °F 57% 29.78 in 10.0 mi NNE 10.4 mph - N/A   Clear
11:53 PM 61.0 °F 41.0 °F 48% 29.77 in 10.0 mi East 5.8 mph - N/A   Clear